www.pogodaiklimat.ru

Погода и климат >> Архив погоды >> Антарктида >> Neumayer Station


ПОГОДА в Neumayer Station

  • Прогноз погоды в Neumayer Station
  • Монитор погоды в Neumayer Station
  • Климат города

АРХИВ ПОГОДЫ в Neumayer Station

Время (UTC), дата Ветер
(напр.,м/с)
 
Видим.   Явления Облачность Т
(С)
Тd
(С)
f
(%)
Тe
(С)
Тes
(С)
Комфортность P
(гПа)
Po
(гПа)
Тmin
(С)
Tmax
(С)
R
(мм)
R24
(мм)
S
(см)
06 15.09 В 18 50 м слабый снег {метель} туман ?/? -18.1 -21.1 77 -34 -34 опасность
обморожения
988.3 982.3
09 15.09 В 21 <100 м слабый снег {метель} ?/? -17.2 -20.2 77 -34 -34 опасность
обморожения
985.2 979.3
12 15.09 В 23 50 м слабый снег {метель} туман ?/? -17.3 -20.3 77 -35 -35 опасность
обморожения
981.7 975.8 -18.5 -16.7
15 15.09 В 23 <50 м слабый снег {метель} туман ?/? -16.8 -19.7 78 -34 -34 опасность
обморожения
978.7 972.8
18 15.09 В 24 <100 м слабый снег {метель} ?/? -17.6 -20.6 77 -35 -35 опасность
обморожения
977.8 972.0
21 15.09 В 23 <100 м слабый снег {метель} ?/? -16.5 -19.4 78 -34 -34 опасность
обморожения
977.9 972.0
00 16.09 В 23 <100 м слабый снег {метель} ?/? -15.8 -18.6 79 -33 -33 опасность
обморожения
977.7 971.9 -19.3 -15.8
03 16.09 В 24 н/о н/о -15.6 -18.4 79 -32 -32 опасность
обморожения
977.2 971.4
06 16.09 В 25 <100 м слабый снег {метель} ?/? -16.4 -19.3 78 -34 -34 опасность
обморожения
977.1 971.3
09 16.09 В 23 <100 м слабый снег {метель} ?/? -18.5 -21.6 77 -36 -36 опасность
обморожения
978.6 972.8
12 16.09 В 22 <50 м слабый снег {метель} туман ?/? -18.1 -21.2 77 -36 -36 опасность
обморожения
977.7 971.8 -18.6 -15.6
15 16.09 В 23 <100 м слабый снег {метель} ?/? -17.3 -20.3 77 -35 -35 опасность
обморожения
976.3 970.4
18 16.09 В 23 <100 м слабый снег {метель} ?/? -17.3 -20.3 77 -35 -35 опасность
обморожения
974.4 968.6
21 16.09 В 22 <100 м слабый снег {метель} ?/? -17.2 -20.1 78 -34 -34 опасность
обморожения
973.9 968.1
00 17.09 В 22 <100 м слабый снег {метель} ?/? -17.0 -19.9 78 -34 -34 опасность
обморожения
972.7 966.9 -18.1 -16.9
03 17.09 В 23 н/о н/о -15.3 -18.1 79 -32 -32 опасность
обморожения
971.8 966.0
06 17.09 В 20 <100 м сильная метель {снег} ?/? -15.6 -18.6 78 -31 -31 опасность
обморожения
973.1 967.3
09 17.09 В 13 1000 м метель 10/10 1000 м
[St]
-16.1 -19.6 74 -30 -30 974.9 969.1
12 17.09 В 12 4000 м метель 10/0
[Ac As]
-14.6 -20.6 60 -27 -27 976.1 970.3 -17.0 -14.5
15 17.09 В 5 10 км позёмок {метель} 10/0
[Ac As]
-14.0 -20.2 59 -23 -22 976.3 970.6
18 17.09 В 6 20 км позёмок {метель} 10/0
[Ac As Cs]
-15.9 -22.0 59 -26 -26 977.4 971.6
21 17.09 В 10 2000 м метель 10/0
[As trans Cs]
-16.1 -21.4 64 -29 -29 978.4 972.6
00 18.09 В 7 2000 м позёмок {метель} 10/0
[As trans]
-16.9 -22.2 63 -27 -27 979.1 973.3 -17.2 -12.9
03 18.09 В 4 2000 м 10/0
[As trans]
-17.5 -23.1 62 -25 -25 979.2 973.4
06 18.09 Ю 6 4000 м 10/0
[As trans]
-20.4 -24.7 68 -31 -31 опасность
обморожения
979.9 974.0
09 18.09 ЮЗ 5 50 км 10/0
[As trans]
-22.3 -26.4 69 -32 -32 опасность
обморожения
979.2 973.3
12 18.09 ЮЗ 5 50 км 10/0
[As trans Cs]
-19.7 -24.1 68 -29 -29 978.6 972.7 -22.4 -15.6
15 18.09 З 6 50 км 10/0
[As trans]
-16.4 -21.3 66 -26 -26 978.5 972.7
18 18.09 ЮЗ 4 50 км 10/1 600 м
[Sc As trans]
-20.3 -24.1 72 -29 -29 978.2 972.2
21 18.09 ЮЗ 5 10 км 10/1 600 м
[Sc As trans]
-22.8 -26.5 72 -34 -34 опасность
обморожения
977.8 971.9
00 19.09 Ю 5 4000 м 6/0
[As trans Ci fib]
-25.6 -29.7 68 -37 -37 опасность
обморожения
977.8 971.8 -25.6 -16.3
03 19.09 Ю 5 н/о н/о -26.3 -30.3 69 -38 -38 опасность
обморожения
978.0 971.9
06 19.09 Ю 5 10 км 8/0 2000 м
[As trans]
-28.1 -32.1 68 -40 -40 опасность
обморожения
978.4 972.3
09 19.09 ЮВ 4 50 км 10/0
[As trans]
-27.0 -31.3 67 -37 -37 опасность
обморожения
980.4 974.3
12 19.09 Ю 2 50 км 10/0
[As trans]
-22.3 -26.7 67 -27 -26 981.9 976.0 -29.0 -19.2
15 19.09 Ю 8 50 км 10/10 1500 м
[Sc]
-18.5 -24.4 60 -30 -30 983.8 977.9
18 19.09 Ю 7 50 км 10/0
[Ac As]
-18.8 -23.9 64 -30 -30 985.8 979.9
21 19.09 Ю 6 10 км 10/0
[As trans]
-22.2 -26.7 67 -34 -34 опасность
обморожения
987.5 981.5
00 20.09 Ю 6 4000 м 5/0
[Ac As Cs]
-25.1 -29.2 69 -38 -38 опасность
обморожения
988.0 982.0 -25.4 -17.3
03 20.09 ЮЗ 6 н/о н/о -26.8 -31.4 65 -40 -40 опасность
обморожения
987.7 981.6
06 20.09 ЮЗ 7 10 км 1/0
[Ci fib]
-27.2 -31.6 66 -41 -41 опасность
обморожения
986.4 980.2
09 20.09 ЮЗ 7 50 км 1/0
[Ci fib]
-27.5 -31.9 66 -42 -41 опасность
обморожения
985.5 979.3
12 20.09 З 9 50 км позёмок 1/0
[Ci fib]
-22.5 -26.8 68 -36 -36 опасность
обморожения
984.5 978.5 -29.2 -22.5
15 20.09 ЮЗ 13 50 м сильная метель ?/? -21.8 -24.2 81 -37 -37 опасность
обморожения
983.1 977.1
18 20.09 З 13 200 м метель ?/? -24.3 -26.7 80 -41 -41 опасность
обморожения
981.1 975.1
21 20.09 ЮЗ 13 200 м метель ?/? -26.4 -28.8 80 -44 -44 опасность
обморожения
979.0 972.9
00 21.09 ЮЗ 12 200 м метель ясно -27.7 -30.4 78 -45 -45 опасность
обморожения
977.2 971.1 -28.0 -20.6
03 21.09 З 13 н/о н/о -27.1 -29.7 78 -45 -45 опасность
обморожения
976.4 970.3
06 21.09 ЮЗ 13 200 м метель ?/? -27.7 -30.4 78 -45 -45 опасность
обморожения
975.7 969.6
09 21.09 ЮЗ 11 200 м метель ясно -26.2 -28.7 79 -42 -42 опасность
обморожения
975.8 969.8
12 21.09 ЮЗ 4 10 км туман на расстоянии 1/1 300 м
[Sc]
-27.3 -30.2 76 -38 -36 опасность
обморожения
976.8 970.8 -28.2 -25.3
15 21.09 ЮЗ 6 50 км 3/3 1000 м
[Sc]
-26.1 -29.5 73 -38 -38 опасность
обморожения
977.3 971.3
18 21.09 ЮЗ 7 1000 м снег туман 10/10 600 м
[Frnb]
-23.9 -27.5 72 -37 -37 опасность
обморожения
976.9 970.9
21 21.09 Ю 5 4000 м {снег} 10/10 600 м
[Sc]
-18.8 -21.7 78 -28 -28 977.1 971.3
00 22.09 Ю 5 500 м слабый снег 10/10 300 м
[Frnb]
-17.2 -20.4 76 -27 -27 978.3 972.5 -28.1 -14.6

 

Местоположение метеостанции Neumayer Station (Антарктида): широта -70.66 долгота -8.25 высота над уровнем моря 50 м.

В архиве по умолчанию представлена погода в Neumayer Station за последнюю неделю. Архивные данные за месяц целиком и за предыдущие месяцы, начиная с января 2011 года, Вы можете получить, выбрав интересующий диапазон дат из раскрывающегося списка и нажав кнопку "Ввод!".


*Определитесь, кто Вы:
робот инопланетянин человек

Внимание! Время в таблицах - всемирное. Для получения местного времени необходимо прибавить поправку, которая в Neumayer Station равна 0 ч.

Смотрите также архив погоды в соседних городах и на ближайших метеорологических станциях:

Погода в Soerasen (Антарктида) (102 км)
Погода в SANAE (Антарктида) (227 км)
Погода в Nordenskiold Base (Антарктида) (320 км)
Погода в Troll (Антарктида) (406 км)
Погода в Kohnen Ep9 (Антарктида) (552 км)
Погода в Maitri (Антарктида) (732 км)
Погода в Novolazarevskaja (Антарктида) (734 км)
Погода в Halley (Антарктида) (797 км)
Погода в Base Belgrano Ii (Антарктида) (1110 км)
Погода в Limbert Aws (Антарктида) (1666 км)

Пояснения к столбцам:

Ветер - указаны скорость ветра в м/с - средняя за 10 мин, порывы в срок и между сроками (в фигурных скобках) и направление, откуда дует ветер: С - северный, СВ - северо-восточный, В - восточный, ЮВ - юго-восточный, Ю - южный, ЮЗ - юго-западный, З - западный, СЗ - северо-западный.
Видимость - горизонтальная дальность видимости в метрах или километрах. При видимости от 1 до 10 км при отсутствии осадков обычно наблюдается дымка, при ухудшении видимости до 1 км и менее - туман. В сухую погоду видимость может ухудшаться дымом, пылью или мглою.
Явления - указаны атмосферные явления, наблюдавшиеся в срок или в последний час перед сроком; фигурными скобками обозначены явления, наблюдавшиеся между сроками (за 1-3 часа до срока); квадратными скобками обозначены град или гололедные отложения с указанием их диаметра в мм.
Облачность - указаны через наклонную черту общая и нижняя облачность в баллах и высота нижней границы облаков в метрах; квадратными скобками обозначены формы облаков: Ci - перистые, Cs - перисто-слоистые, Cc - перисто-кучевые, Ac - высококучевые, As - высокослоистые, Sc - слоисто-кучевые, Ns - слоисто-дождевые, Cu - кучевые, Cb - кучево-дождевые. Подробнее классификацию облаков см. в Атласе облаков (PDF).
T - Температура воздуха - температура, измеренная на высоте 2 м над землей.
Td - Температура точки росы - температура, при понижении до которой содержащийся в воздухе водяной пар достигнет насыщения.
f - Относительная влажность воздуха - влажноcть воздуха, измеренная на высоте 2 м над землей.
Te - Эффективная температура - температура, которую ощущает одетый по сезону человек в тени. Характеристика душности погоды. При расчете учитывается влияние влажности воздуха и скорости ветра на теплоощущения человека.
Tes - Эффективная температура на солнце - температура, которую ощущает человек, с поправкой на солнечный нагрев. Характеристика знойности погоды. Зависит от высоты солнца над горизонтом, облачности и скорости ветра. Ночью, в пасмурную погоду, а также при ветре 12 м/с и более поправка равна нулю.
P - Атмосферное давление - приведенное к уровню моря атмосферное давление.
Po - Атмосферное давление - измеренное на уровне метеостанции атмосферное давление.
Tmin - Минимальная температура - минимум температуры воздуха на высоте 2 м над землей.
Tmax - Максимальная температура - максимум температуры воздуха на высоте 2 м над землей.
R - Количество осадков - Количество выпавших осадков за период времени, мм. При наведении курсора мыши на число - период времени, за который выпало указанное количество осадков.
R24 - Количество осадков - Количество выпавших осадков за 24 часа, мм.
S - Снежный покров - Высота снежного покрова, см. При наведении курсора мыши на число - состояние снежного покрова и степень покрытия местности в баллах.